Location: Go�ngahuizen
(53.0821°N, 5.8849°E)
Time: 21:18:57
(UTC+00:00)

Cosmos 1346 Rocket - Pass Details

Date: 09 April 2020
Orbit: 529 x 550 km, 81.2° (Epoch: 03 June)

Event Time Altitude Azimuth Distance (km) Brightness Sun altitude
Rises 22:37:22 0° 346° (NNW) 2,728 7.7 -27.6°
Reaches altitude 10° 22:39:33 10° 347° (NNW) 1,832 6.5 -27.7°
Enters shadow 22:42:14 41° 351° (N) 814 4.0 -27.8°
